Regional Weather Roundup
Issued by NWS

Home | Current Version | Previous Version | Graphics & Text | Print | Product List | Glossary Off
Versions: 1 2 3 4 5 6 7 8 9 10 11 12 13 14 15 16 17 18 19 20 21 22 23 24 25 26 27 28 29 30 31 32 33 34 35 36 37 38 39 40 41 42 43 44 45 46 47 48 49 50

000
ASUS43 KMPX 240210
RWRMN
WEATHER ROUNDUP FOR MINNESOTA
NATIONAL WEATHER SERVICE TWIN CITIES/CHANHASSEN MN
900 PM CDT THU OCT 23 2014


NOTE: "FAIR" INDICATES FEW OR NO CLOUDS BELOW 12,000 FEET WITH NO
SIGNIFICANT WEATHER AND/OR OBSTRUCTIONS TO VISIBILITY. N/A MEANS
CURRENT SKY AND/OR WEATHER CONDITIONS ARE NOT AVAILABLE.

MNZ060>063-068>070-240300-
   Twin Cities Metro

CITY           SKY/WX    TMP DP  RH WIND       PRES   REMARKS
TWIN CITIES    CLEAR     54  50  86 SE5       29.98S
ST PAUL        CLEAR     52  50  93 SE9       29.99S
CRYSTAL        CLEAR     55  50  83 SE5       29.96S
BLAINE         CLEAR     55  54  94 SE7       29.97S
LAKEVILLE      CLEAR     50  48  93 S3        29.98S
EDEN PRAIRIE   CLEAR     54  47  77 SE7       29.96S
SOUTH ST PAUL  CLEAR     53  50  90 CALM      29.98S
LAKE ELMO      FAIR      50  50 100 S6        29.99F
$$
MNZ001>005-007-008-013>017-022>024-027-028-240300-
   Northwest Minnesota

CITY           SKY/WX    TMP DP  RH WIND       PRES   REMARKS
BEMIDJI        CLEAR     55  36  50 S7        29.85F
HALLOCK        MOCLDY    50  39  66 SE9       29.76F
ROSEAU         PTCLDY    50  43  76 S7        29.79F
WARROAD        CLEAR     50  43  76 S5        29.79F
THIEF RVR FALL MOCLDY    52  39  62 S9        29.80F
CROOKSTON      MOCLDY    52  41  66 S8        29.80F
FOSSTON        PTCLDY    52  39  62 S10       29.83S
DETROIT LAKES  PTCLDY    54  37  54 S7        29.87F
MOORHEAD       MOCLDY    59  34  38 S9        29.84S
PARK RAPIDS    CLEAR     52  39  61 S10       29.88S
MAHNOMEN       FAIR      54  39  57 S12       29.84S
$$
MNZ006-009>011-018-025>026-240300-
   North Central Minnesota

CITY           SKY/WX    TMP DP  RH WIND       PRES   REMARKS
BAUDETTE       CLEAR     48  37  65 S6        29.81F
FLAG ISLAND    PTCLDY    52  45  76 S3        29.78F
INTL FALLS     CLEAR     45  35  68 CALM      29.84S
WASKISH        CLEAR     46  37  71 CALM      29.83F
BIG FORK       CLEAR     46  41  81 S5        29.88S
LONGVILLE      CLEAR     55  37  50 S6        29.89S
GRAND RAPIDS   CLEAR     52  43  71 S7        29.91R
CRANE LAKE     CLEAR     50  46  87 S5        29.89S
ORR            CLEAR     50  45  81 CALM      29.86S
COOK           PTCLDY    52  46  82 S5        29.90S
WALKER         FAIR      56  37  48 SW6       29.88S
$$
MNZ012-019>021-037-240300-
   Northeast Minnesota

CITY           SKY/WX    TMP DP  RH WIND       PRES   REMARKS
DULUTH         PTCLDY    49  46  90 S8        29.94S
ELY            CLEAR     46  45  93 S5        29.92R
HIBBING        FOG       41  39  93 CALM      29.92R VSB 1/2
EVELETH        FOG       39  39 100 CALM      29.93R VSB 1/2
DULUTH HARBOR  PTCLDY    50  48  93 CALM      29.95S
TWO HARBORS    PTCLDY    43  30  61 CALM      29.93S HAZE
SILVER BAY     CLEAR     43  41  93 CALM      29.93S FOG
GRAND MARAIS     N/A     48  46  93 W3        29.95S
G MARAIS ARPRT MIX PCPN  45  43  93 SW6       29.95S VSB 1/4
$$
MNZ029>031-032-039>041-046>048-054>057-064-240300-
   West Central Minnesota

CITY           SKY/WX    TMP DP  RH WIND       PRES   REMARKS
FERGUS FALLS   PTCLDY    54  39  58 S9        29.88F
WHEATON        CLEAR     54  43  66 S9        29.89F
MORRIS         CLEAR     50  39  66 S7        29.90F
ALEXANDRIA     CLEAR     53  41  63 S9        29.93F
ELBOW LAKE     FAIR      49  41  74 S8        29.89F
WADENA         CLEAR     52  43  71 S8        29.89F
GLENWOOD       CLEAR     50  41  71 S7        29.93F
APPLETON       CLEAR     57  41  54 S7        29.91F
BENSON         CLEAR     52  41  66 S7        29.92F
ORTONVILLE     CLEAR     50  39  66 S5        29.91S
MADISON        CLEAR     54  43  66 S8        29.92S
WILLMAR        FAIR      50  39  66 S5        29.95F
$$
MNZ033>034-036-042>043-049>051-058-059-240300-
   Central Minnesota

CITY           SKY/WX    TMP DP  RH WIND       PRES   REMARKS
ST CLOUD       CLEAR     50  40  68 SE3       29.95R
SAUK CENTRE    FAIR      49  39  68 SE5       29.93F
PAYNESVILLE    CLEAR     45  38  77 E3        29.95S
AITKIN         CLEAR     54  46  76 S5        29.91S
PINE RIVER     CLEAR     50  37  62 CALM      29.94S
BRAINERD       CLEAR     47  37  68 S7        29.92S
STAPLES        CLEAR     48  39  71 S6        29.91S
LONG PRAIRIE   FAIR      46  37  71 SE3       29.93F
LITTLE FALLS   CLEAR     52  36  54 CALM      29.94S
LITCHFIELD     CLEAR     52  43  71 CALM      29.96S
BUFFALO        CLEAR     48  41  76 CALM      29.97R
MAPLE LAKE     CLEAR     46  44  91 CALM      29.97R
$$
MNZ037-044-045-052-053-240300-
   East Central Minnesota

CITY           SKY/WX    TMP DP  RH WIND       PRES   REMARKS
PRINCETON      CLEAR     48  46  93 CALM      29.96R
MORA           CLEAR     45  43  93 CALM      29.97R
CAMBRIDGE      CLEAR     55  46  71 SE6       29.95R
RUSH CITY      PTCLDY    52  49  90 S5        29.96S
MOOSE LAKE     PTCLDY    48  46  93 CALM      29.93R FOG
HINCKLEY       FAIR      52  50  93 S6        29.96R
CLOQUET        PTCLDY    50  46  87 S3        29.94S
MCGREGOR       CLEAR     50  45  81 S5        29.93R
$$
MNZ071>073-080-081-089-090-097-098-240300-
   Southwest Minnesota

CITY           SKY/WX    TMP DP  RH WIND       PRES   REMARKS
MONTEVIDEO     CLEAR     57  45  62 SW7       29.93F
GRANITE FALLS  CLEAR     50  43  78 S7        29.95F
CANBY          CLEAR     56  43  61 S6        29.93S
MARSHALL       CLEAR     54  43  66 S8        29.93F
REDWOOD FALLS  CLEAR     53  41  63 S9        29.95S
OLIVIA         CLEAR     52  41  66 S7        29.95S
PIPESTONE      CLEAR     55  45  67 S9        29.95F
WINDOM           N/A     55  43  62 S6        29.99S
WORTHINGTON    CLEAR     54  43  66 S10       29.99F
JACKSON        CLEAR     50  41  71 S7        30.00S
TRACY          CLEAR     58  44  60 S9        29.96F
SLAYTON        CLEAR     46  42  88 S6        29.98F
$$
MNZ065>067-074>077-082>085-091>093-240300-
   South Central Minnesota

CITY           SKY/WX    TMP DP  RH WIND       PRES   REMARKS
MANKATO        CLEAR     54  39  58 SE6       29.98S
NEW ULM        CLEAR     50  39  66 S5        29.98R
ST JAMES       CLEAR     52  37  58 S5        29.99F
FAIRMONT       CLEAR     50  34  53 SW7       30.00S
GLENCOE        CLEAR     49  43  79 CALM      29.96R
FARIBAULT      CLEAR     46  45  93 SE5       29.99S
OWATONNA       CLEAR     54  48  82 SE8       30.00S
WASECA         CLEAR     46  36  66 SE7       30.01S
ALBERT LEA     FAIR      52  50  93 SE6       30.01S
$$
MNZ078>079-086>088-094>096-240300-
   Southeast Minnesota

CITY           SKY/WX    TMP DP  RH WIND       PRES   REMARKS
ROCHESTER      CLEAR     47  46  97 S8        30.02F FOG
RED WING       PTCLDY    50  48  93 SE6       30.00S FOG
STANTON        CLEAR     54  50  85 S3        29.98S
DODGE CENTER   CLEAR     50  48  93 S9        30.01F
WINONA         CLOUDY    52  50  93 SE5       30.03F FOG
AUSTIN         CLEAR     50  48  93 S3        30.02S FOG
PRESTON        FOG       47  46  98 S7        30.04S VSB 1/4
$$
ABBREVIATIONS USED IN REMARKS
   TC - TEMPERATURES IN CELSIUS
  WCI - WIND CHILL INDEX
   HX - HEAT INDEX
  VSB - VISIBILITY
$$



USA.gov is the U.S. government's official web portal to all federal, state and local government web resources and services.